Regional Weather Roundup
Issued by NWS Upton, NY

Current Version | Previous Version | Text Only | Print | Product List | Glossary On
Versions: 1 2 3 4 5 6 7 8 9 10 11 12 13 14 15 16 17 18 19 20 21 22 23 24 25 26 27 28 29 30 31 32 33 34 35 36 37 38 39 40 41 42 43 44 45 46 47 48 49 50
893
ASUS41 KOKX 261708
RWROKX

REGIONAL WEATHER ROUNDUP
NATIONAL WEATHER SERVICE NEW YORK NY
100 PM EDT SUN MAR 26 2017

NOTE: "FAIR" INDICATES FEW OR NO CLOUDS BELOW 12,000 FEET WITH NO
SIGNIFICANT WEATHER AND/OR OBSTRUCTIONS TO VISIBILITY.

NYZ071-072-176-178-NJZ106-104-261800-
NEW YORK CITY METRO AREA

CITY           SKY/WX    TMP DP  RH WIND       PRES   REMARKS
Central Park   CLOUDY    39  33  79 VRB6      30.49F WCI  35
Wall St Helipt CLOUDY    41  34  76 NE10      30.47F
LaGuardia APRT CLOUDY    41  33  73 NE16      30.47F
Kennedy INTL   CLOUDY    42  35  76 E17       30.48F
Breezy Point     N/A     39 N/A N/A E13G20      N/A  WCI  32
Newark/Liberty CLOUDY    42  34  73 E8        30.46F
Teterboro      CLOUDY    40  32  73 E9G18     30.47F WCI  34
$$

NYZ177-179-078>081-261800-
LONG ISLAND NEW YORK

CITY           SKY/WX    TMP DP  RH WIND       PRES   REMARKS
Jones Beach      N/A     39 N/A N/A E18         N/A  WCI  30
Matinecock PT  NOT AVBL
Farmingdale    CLOUDY    42  33  70 E10       30.47S
MacArthur/ISP  CLOUDY    43  31  62 E15       30.47F
Shirley        CLOUDY    42  32  67 E10G17    30.49S
Westhampton    CLOUDY    41  31  67 E12G22    30.50R
East Hampton   CLOUDY    40  31  70 E12G22    30.49R WCI  33
Montauk          N/A     42  36  79 E9        30.50F
$$

NYZ052-065-067-261800-
HUDSON VALLEY

CITY           SKY/WX    TMP DP  RH WIND       PRES   REMARKS
White Plains   PTSUNNY   39  29  67 E10       30.45F WCI  32
Newburgh       CLOUDY    39  32  75 E9        30.47F WCI  33
Montgomery     CLOUDY    40  30  67 E6        30.44F
Poughkeepsie   CLOUDY    37  29  72 E5        30.47F WCI  33
Albany         LGT RAIN  36  26  67 S6        30.46F WCI  31
$$

NJZ001-105-106-008-010-013-015-019>022-104-261800-
NEW JERSEY

CITY           SKY/WX    TMP DP  RH WIND       PRES   REMARKS
Newark/Liberty CLOUDY    42  34  73 E8        30.46F
Teterboro      CLOUDY    40  32  73 E9G18     30.47F WCI  34
Caldwell       CLOUDY    40  32  73 E9        30.47F WCI  34
Somerville     CLOUDY    42  34  73 E8        30.43F
Linden         CLOUDY    42  34  74 E14       30.47S
Sussex         CLOUDY    37  34  89 NE5       30.43F WCI  33
Andover          N/A     38  31  76 MISG      30.43F
Trenton        CLOUDY    41  36  82 E13       30.43S
Millville      CLOUDY    47  42  83 E15       30.37F
Atlantic City  CLOUDY    45  38  76 E16G25    30.39F
Wrightstown    CLOUDY    43  38  82 NE17      30.39F
Toms River     CLOUDY    42  38  85 NE12G17   30.44S
Belmar         CLOUDY    41  37  86 E12       30.44F
$$

PAZ047>061-062-071-261800-
EASTERN PENNSYLVANIA

CITY           SKY/WX    TMP DP  RH WIND       PRES   REMARKS
Philadelphia   CLOUDY    44  38  79 NE12G21   30.41F
Allentown      CLOUDY    43  33  68 E14       30.42F
Scranton       CLOUDY    40  33  76 VRB3      30.36F
$$

CTZ002-004>006-009-010-012-RIZ004-006-007-MAZ004-011-015-261800-
SOUTHERN NEW ENGLAND
 IN CT

CITY           SKY/WX    TMP DP  RH WIND       PRES   REMARKS
Bradley INTL   LGT RAIN  36  29  75 N5        30.51F WCI  32
Hartford       CLOUDY    37  30  75 N3        30.51F
Danbury        CLOUDY    39  29  67 E7        30.48F WCI  34
Wtrbury/Oxford CLOUDY    34  27  75 SE5       30.48F WCI  30
Bridgeport     CLOUDY    41  29  62 E10       30.50S
Meriden        CLOUDY    38  30  73 NE3       30.50F
New Haven      CLOUDY    40  29  64 E6        30.50F
Chester        NOT AVBL
Groton         CLOUDY    42  32  67 E14       30.49F
Wilimantic     LGT RAIN  41  28  60 CALM      30.51F

 IN RI

CITY           SKY/WX    TMP DP  RH WIND       PRES   REMARKS
Providence     CLOUDY    44  25  47 E13       30.51F
Block Island   LGT RAIN  40  36  86 E15G22    30.50F WCI  32
Westerly       LGT RAIN  41  35  79 E10       30.51S
 IN MA

CITY           SKY/WX    TMP DP  RH WIND       PRES   REMARKS
Boston         CLOUDY    39  26  59 E15       30.56S WCI  31
Worcester      CLOUDY    36  20  52 NE9       30.47F WCI  29
Westfield      LGT RAIN  35  30  82 N5        30.51S WCI  31
Provincetown   MOSUNNY   41  27  57 E15       30.55S
Nantucket      CLOUDY    42  27  55 E15G25    30.50S
$$

ANZ330-335-338-340-345-350-353-355-261800-
COASTAL MARINE OBSERVATIONS


STATION/POSITION TIME  SKY/WX   TEMP    WIND        PRES    VSBY  WAVE
                                AIR SEA DIR/SP/G                  HT/PER
                 (UTC)          (F)     (DEG/KT/KT) (MB)    (MI)  (FT/S)
NY HARB ENTRANCE 1550            40 42   70/ 17/ 19 1031.4          5/ 5
20 S FIRE ISLAND 1650            41 40   80/ 16/ 19 1030.7          6/ 6
GREAT SOUTH BAY  NOT AVBL
23 SSW MONTAUK P 1550            41 43              1032.5          4/ 5
15 E BARNEGAT LI 1630               43                N/A           6/ 7
HUDSON CANYON    1550            45 45   70/ 16/ 19 1029.4          6/ 6
KINGS POINT      1648            39 38              1031.6
EXECUTION ROCKS  NOT AVBL
CENTRAL LI SOUND 1615            39      80/ 14/ 17   N/A           2/ 4
EASTERN LI SOUND NOT AVBL
ROBBINS REEF     1648            41      90/ 18/ 21 1031.5
$$


>>>>>>>>>>>>>>>>>>>>>>>>>>>> KEY <<<<<<<<<<<<<<<<<<<<<<<<<<<
>                                                          <
>     SKY/WX - Sky Condition/Present Weather               <
>     TMP    - Temperature in Fahrenheit                   <
>     DP     - Dew Point in Fahrenheit                     <
>     RH     - Relative Humidity in Percent                <
>     WIND   - Direction (from) and Speed in MPH           <
>     PRES   - Mean Sea Level Pressure (inches of Hg)      <
>     WCI    - Wind Chill Index                            <
>     VSB    - VISIBILITY IN MILES                         <
>     HX     - HEAT INDEX                                  <
>     TC     - TEMPERATURE IN CELSIUS                      <
>     VRB    - VARIABLE WIND DIRECTION                     <
>                                                          <
>>>>>>>>>>>>>>>>>>>>>>>>>>>> KEY <<<<<<<<<<<<<<<<<<<<<<<<<<<




USA.gov is the U.S. government's official web portal to all federal, state and local government web resources and services.